sat.trackr.live / text

‹ back to catalog

RASSVET-3 3

NORAD 68362 · 2026-061C

PAYLOAD ACTIVE UNKNOWN

§ Identity

Operator
Country
CIS
Launch date
2026-03-23
Launch site
PLMSC
Launch vehicle
Mass (kg)
RCS (m²)

External: N2YO · Heavens-Above · Gunter

§ Orbital elements

Epoch: 2026-09-19T01:00:15.338880Z

Period
94.83 min
Inclination
82.2926°
Eccentricity
0.0000538
Mean motion
15.18442256 rev/d
Perigee alt
510.2 km
Apogee alt
510.9 km
Semi-major
6,888.7 km
B*
1.1430e-4
RAAN
278.5135°
Arg perigee
288.7094°
Mean anomaly
71.4080°
Rev number
2,768

§ Raw data

RASSVET-3 31 68362U 26061C   26262.04184420  .00002382  00000+0  11430-3 0  99972 68362  82.2926 278.5135 0000538 288.7094  71.4080 15.18442256 27682

JSON: /api/v1/satellites/68362 · /tle

For live sub-satellite position, see the globe view (requires WebGL).

§ Visibility from observer

Set your observer location to see the next 7 days of passes ≥ 10°. The values pass through the URL so the page stays shareable.

No JS? Fill the form by hand. The geolocation button needs JavaScript.